Theta_e
353 355 355 355 353 350 357 354 346 347 350 351 351 351 350 349 351 349 348 350 345 346 345 345 344 345 344 343 342 341 339 337 339 339 338 338 339 339 340 341 343 343 343 342 335 333 331 331 335
353 356 358 354 354 357 359 351 348 347 347 350 351 351 349 347 345 343 349 348 343 343 346 345 344 344 345 344 344 342 339 337 340 339 338 337 339 344 344 340 340 340 336 333 336 339 338 335 333
353 357 355 352 355 355 358 352 348 343 346 347 350 350 350 345 343 346 348 348 339 337 343 343 343 343 342 340 343 340 339 339 338 338 342 343 340 338 337 335 333 332 335 339 340 341 340 339 336
355 353 353 353 357 348 349 350 347 345 344 348 349 352 350 347 342 345 349 348 345 342 336 336 336 336 336 335 336 337 337 337 337 338 339 341 340 335 340 337 332 334 338 341 341 341 341 341 338
355 354 354 354 357 350 347 349 349 347 346 351 351 351 351 349 346 346 349 347 349 346 338 336 338 339 339 336 336 336 336 335 336 337 339 341 340 339 342 335 335 338 341 343 342 341 340 340 339
351 350 353 355 355 355 353 349 349 347 345 351 351 351 350 347 347 346 346 350 348 348 338 339 342 342 343 340 339 338 338 340 338 338 338 341 340 340 340 335 336 341 343 342 341 340 340 340 340
350 352 355 354 357 355 349 350 352 347 346 349 352 351 349 347 345 345 345 344 344 341 338 337 339 337 341 339 341 341 339 339 339 340 339 340 338 339 332 335 340 342 343 342 344 342 342 342 341
344 350 350 353 357 357 346 352 350 345 343 346 349 350 349 348 347 346 345 348 347 345 346 336 337 337 338 341 340 341 340 342 342 341 340 340 337 336 329 335 341 342 343 343 343 341 341 342 342
344 345 351 354 353 351 349 352 349 348 348 350 350 349 347 349 345 347 347 348 347 349 348 346 336 335 339 342 332 334 341 342 341 340 339 339 336 334 328 335 341 342 343 343 342 344 347 346 343
347 347 350 349 346 353 353 347 341 348 347 351 350 349 350 348 347 347 348 348 348 349 347 347 346 340 343 338 333 337 341 341 338 337 339 340 339 344 337 335 339 342 342 341 344 349 349 348 344
349 345 347 348 349 344 350 350 348 346 348 348 349 349 349 348 348 348 348 347 347 345 347 347 348 347 345 342 339 337 342 337 336 335 341 346 342 348 349 330 340 342 343 345 346 346 346 347 344
348 343 346 346 347 351 350 349 349 347 346 345 348 348 348 347 346 347 348 348 348 348 347 347 345 345 346 342 339 337 341 337 340 332 340 344 345 344 344 335 340 342 346 341 344 345 345 347 339
344 338 341 345 345 348 348 347 351 346 343 346 346 348 347 347 347 347 347 347 347 348 347 346 347 345 346 345 337 339 339 340 338 335 338 341 345 343 345 343 345 347 347 347 344 345 339 342 340
343 344 346 346 344 347 348 350 347 348 347 347 347 347 348 347 347 346 346 345 346 346 348 347 348 344 347 344 341 344 342 342 335 336 343 345 344 345 347 346 346 348 348 344 348 345 342 344 346
340 345 346 340 339 344 346 352 353 344 346 347 345 344 347 346 345 345 346 345 345 345 346 349 347 346 346 346 348 346 346 341 337 336 345 343 346 346 345 346 345 348 350 346 347 345 338 342 346
339 343 346 346 340 344 345 352 351 347 345 345 342 343 345 346 346 346 346 346 346 345 346 345 347 346 346 346 345 347 347 338 337 334 341 345 345 344 342 346 347 347 347 347 345 344 340 342 346
343 345 345 345 343 348 347 352 351 350 346 346 344 343 343 346 346 345 346 346 346 346 344 344 345 344 344 344 344 344 344 343 340 340 345 345 344 343 345 348 347 345 347 346 344 339 336 341 343
345 344 344 348 351 345 346 346 350 347 349 348 345 345 342 344 345 345 346 346 345 345 345 343 344 343 345 344 342 343 345 342 341 337 342 344 345 343 346 348 347 350 345 345 342 342 335 341 339
332 340 338 336 346 340 338 340 353 350 349 351 346 346 344 342 344 343 344 346 346 346 346 345 343 344 344 343 344 341 345 339 340 343 341 334 334 333 347 350 345 346 348 346 340 344 343 334 342
330 330 332 334 337 337 338 339 353 350 346 347 346 347 344 344 344 345 343 345 346 346 346 344 343 343 343 343 343 339 337 337 337 341 337 335 330 329 346 348 347 340 344 348 344 343 339 338 335
327 328 331 330 331 335 333 333 339 348 347 340 340 348 347 346 343 345 344 345 345 346 345 343 342 344 344 343 343 339 337 336 336 337 337 337 336 332 332 341 348 346 342 348 348 350 347 341 337
326 328 330 333 333 333 333 333 344 346 345 342 344 348 348 347 344 344 345 345 346 346 346 345 342 341 343 342 341 337 340 339 342 341 337 337 339 339 337 334 338 347 344 344 346 349 345 347 344
327 328 328 330 332 331 330 329 345 341 342 342 343 342 349 347 345 344 345 345 347 347 347 347 341 338 343 341 342 340 342 343 341 344 339 343 345 346 339 336 333 332 338 338 337 344 348 351 344
327 327 328 326 326 330 330 333 348 344 344 342 340 343 347 348 347 344 345 344 347 347 347 347 343 337 339 345 344 343 343 343 342 343 344 344 345 346 345 340 336 330 331 333 335 339 341 339 340
324 322 323 326 328 331 336 336 340 342 341 342 343 343 344 348 347 347 344 345 345 349 348 348 346 340 336 342 345 345 344 343 347 347 346 345 345 344 341 346 343 336 337 336 338 338 340 341 338
324 321 322 328 333 334 335 336 334 336 338 343 342 341 343 347 347 347 344 345 344 350 348 348 347 342 338 337 343 343 344 344 346 344 346 344 342 343 347 350 347 343 337 338 338 337 337 341 343
325 324 323 323 325 326 328 333 333 334 334 334 335 337 345 346 347 347 345 344 344 347 348 348 347 347 341 337 338 342 340 341 345 343 343 344 346 348 347 347 347 346 339 339 342 340 340 343 344
324 325 323 324 328 332 330 334 335 331 335 335 336 337 340 345 348 348 346 345 345 348 348 347 347 345 341 339 335 336 336 337 342 344 347 347 348 345 344 347 345 344 343 344 342 341 342 342 345
327 325 325 322 324 328 331 332 333 331 332 334 333 339 340 342 346 348 346 345 346 347 347 347 346 346 343 340 338 335 335 335 337 341 346 348 347 344 343 345 346 343 340 344 341 342 344 345 348
330 329 325 324 325 326 327 329 332 331 334 332 334 342 341 343 344 348 348 346 345 348 348 346 346 347 346 341 341 341 338 338 338 338 338 340 344 346 347 346 347 345 343 341 335 340 344 343 347
Wind_Speed
2 5 6 5 5 3 8 5 10 14 16 29 26 20 12 17 5 4 23 20 17 21 20 18 19 17 16 16 15 15 15 14 14 13 12 12 12 12 11 11 11 12 14 14 15 14 14 13 15
6 8 7 2 4 5 4 10 14 10 20 27 27 24 14 5 7 24 26 20 18 21 21 20 19 17 16 15 13 14 14 14 14 13 13 14 14 14 12 12 13 14 15 15 17 16 14 14 17
6 3 3 3 4 4 4 10 17 12 19 19 18 18 7 6 19 30 25 20 19 22 22 20 18 17 16 15 14 14 13 13 13 12 11 12 13 12 13 12 13 15 17 15 14 13 13 14 17
7 4 5 2 0 4 1 17 15 12 19 22 22 12 11 14 30 31 27 22 22 19 20 20 18 17 16 16 15 14 13 12 11 11 10 11 12 13 13 13 15 14 13 13 12 11 12 13 16
3 5 3 3 6 7 11 18 23 6 6 25 23 11 11 17 29 36 27 23 25 21 19 20 18 16 15 15 15 14 12 12 11 10 10 10 11 11 13 13 14 12 12 11 10 11 11 12 15
3 2 3 4 3 5 9 24 9 6 13 30 25 19 8 23 22 26 27 28 22 22 19 18 16 14 12 12 9 12 12 11 11 11 10 10 11 12 11 13 12 11 11 11 10 11 11 14 13
1 3 5 7 3 2 6 8 15 7 11 14 19 7 14 21 24 24 19 21 17 18 17 16 15 12 12 13 12 12 11 11 13 13 11 11 12 12 11 12 12 10 11 10 9 12 12 13 10
9 5 9 6 3 2 3 7 15 1 2 6 14 8 11 28 28 23 21 24 18 14 11 14 13 12 11 12 12 12 13 10 16 14 13 12 11 10 10 12 11 10 10 9 11 13 14 11 8
7 5 4 4 4 2 4 1 6 9 12 27 13 25 36 26 25 27 26 28 24 19 10 8 9 10 11 12 12 13 12 14 20 17 13 13 11 7 9 11 11 8 9 10 11 9 7 6 8
6 4 5 12 4 2 3 2 1 8 13 25 30 27 28 27 27 24 23 27 22 18 15 10 8 9 10 12 13 13 13 16 19 16 13 16 12 10 7 7 9 8 9 9 7 6 9 4 8
5 5 6 4 7 14 8 12 7 12 3 16 28 32 26 26 22 20 22 21 22 16 19 16 10 10 9 12 12 13 14 20 19 18 13 12 11 9 3 4 8 6 7 3 2 7 3 7 9
6 12 19 3 3 11 3 4 10 4 5 9 34 33 29 28 26 24 23 18 17 17 22 19 17 14 11 8 13 14 18 19 16 18 13 12 10 8 5 5 5 6 4 6 9 5 2 9 17
8 10 20 10 5 13 8 5 11 6 6 17 21 33 32 30 28 26 22 20 20 23 22 15 14 18 16 9 16 14 15 16 14 15 13 11 8 10 7 5 6 3 4 4 4 9 13 6 16
6 13 7 4 2 13 12 9 11 10 12 10 14 33 34 32 28 24 23 19 26 25 23 21 19 21 18 16 17 15 14 12 16 16 15 11 9 4 5 8 5 1 3 8 5 9 6 8 8
6 4 4 2 9 3 7 6 6 13 15 16 23 20 38 33 26 29 26 27 20 22 21 23 22 23 20 20 16 13 22 20 19 19 13 12 10 10 8 8 7 7 6 7 9 6 3 3 9
9 6 6 10 3 5 10 5 6 18 12 10 18 21 32 33 30 23 30 26 21 20 21 21 23 20 19 19 17 15 15 25 25 24 18 16 15 14 11 10 6 6 3 1 4 1 7 8 3
3 3 11 11 11 6 9 4 10 21 15 15 16 14 22 32 30 23 27 29 25 21 18 16 17 15 18 19 24 18 15 18 25 24 19 23 17 18 15 6 5 3 1 5 2 5 4 7 3
6 4 8 6 7 11 9 4 13 25 24 21 20 12 20 25 29 24 28 29 27 22 19 15 15 13 15 18 25 23 22 19 19 22 19 24 17 20 16 4 4 2 2 5 9 7 5 5 11
14 10 4 3 11 8 6 4 16 22 17 13 27 23 21 22 27 28 23 29 27 25 21 17 17 16 18 19 26 27 27 23 21 18 15 15 20 18 16 7 6 3 2 5 4 9 9 3 13
11 8 4 7 6 8 6 9 20 19 9 4 12 30 30 26 30 32 29 30 31 27 22 19 18 19 18 18 24 26 27 24 21 19 16 13 13 15 17 10 8 8 4 4 3 2 4 5 6
10 7 4 9 9 2 4 7 4 15 15 26 31 31 35 34 33 35 35 34 32 30 25 20 19 20 19 19 22 24 19 20 20 20 15 12 11 11 16 16 9 9 8 5 5 4 3 1 3
6 11 9 8 5 3 2 8 4 15 14 17 21 31 34 36 37 38 38 35 37 34 28 20 19 18 17 22 23 28 26 24 21 17 16 14 13 10 13 15 18 12 9 10 5 2 4 6 3
8 8 7 7 6 5 9 2 2 4 9 11 21 28 39 43 39 43 40 37 42 36 32 24 21 20 23 22 23 27 26 22 20 15 15 15 13 6 7 12 15 16 17 13 10 8 6 9 6
6 6 7 7 2 2 11 5 1 6 11 10 19 29 39 42 45 41 41 38 37 37 36 29 23 23 25 26 24 23 24 22 19 18 16 13 13 15 10 10 12 13 13 14 15 12 14 15 11
6 4 4 5 3 6 6 10 10 19 14 16 20 33 31 46 43 43 46 44 34 43 40 33 26 26 27 28 28 27 25 24 20 17 16 16 17 16 15 9 7 13 12 11 12 15 15 14 14
9 8 5 7 3 3 8 8 7 17 20 28 33 39 36 40 46 48 48 47 38 43 42 36 29 26 27 31 31 28 23 28 24 22 18 18 17 18 12 14 12 9 11 8 8 13 16 15 15
9 6 11 5 5 4 5 7 7 3 8 11 22 22 34 37 43 47 45 45 43 43 46 39 31 26 26 27 33 31 25 30 27 24 20 18 23 19 18 16 15 17 13 13 11 11 12 12 14
9 7 4 4 3 7 7 6 4 7 2 7 7 18 22 37 41 42 46 43 47 48 47 40 32 24 24 25 29 31 29 26 29 26 21 23 20 24 24 20 21 24 20 16 15 13 12 11 11
3 5 5 4 4 3 3 6 6 8 8 6 4 12 24 24 27 46 48 46 41 45 47 41 33 26 22 26 27 27 27 26 27 29 28 24 25 24 23 23 23 20 21 16 15 17 13 16 15
8 9 10 5 7 5 5 7 3 8 5 11 7 12 20 20 19 37 43 44 47 47 47 42 35 29 25 24 27 26 25 25 26 27 29 31 28 24 23 23 20 18 16 15 19 21 15 18 21
Wind_Direction
211 49 25 42 42 13 304 314 108 78 75 81 83 83 83 46 127 193 150 183 157 153 149 143 139 132 128 123 119 116 114 111 111 114 115 116 119 118 117 120 117 114 118 121 117 109 104 104 106
35 32 304 135 83 338 284 249 85 111 113 107 98 96 63 61 92 135 133 160 163 150 149 147 142 139 134 128 129 126 125 121 118 114 110 109 110 115 117 122 124 123 121 117 110 105 99 100 103
47 341 285 110 121 197 253 301 319 86 104 112 100 73 70 108 127 132 140 158 151 151 150 143 141 141 136 132 135 132 135 128 123 117 114 112 112 115 124 125 125 123 119 113 108 101 104 101 104
6 324 259 92 221 209 336 293 297 54 82 100 98 69 86 124 135 140 152 156 147 149 146 143 145 142 141 139 138 140 140 138 136 128 119 116 116 123 128 126 126 123 118 111 105 106 98 100 113
290 297 320 319 177 153 183 262 287 50 317 108 102 103 92 135 145 151 156 161 165 146 148 147 149 150 147 147 151 153 159 158 155 146 133 123 127 130 132 132 128 126 118 109 106 107 104 106 113
277 161 1 315 20 82 274 250 242 96 67 106 100 105 107 144 152 158 160 158 160 159 156 155 155 153 158 158 158 159 166 167 172 168 146 138 136 135 137 136 134 130 118 108 109 106 109 94 105
237 50 344 285 4 168 212 5 346 45 40 102 137 107 137 152 149 154 157 156 159 179 171 164 164 164 159 155 159 160 166 174 173 171 153 148 142 138 134 141 136 134 121 114 103 101 92 95 92
113 97 347 315 269 260 298 73 298 31 47 95 147 139 156 149 152 161 148 166 165 168 163 175 167 167 161 156 162 171 172 180 175 170 158 141 134 129 136 144 142 141 129 115 106 97 90 91 108
82 49 300 267 314 101 273 333 332 20 58 64 78 138 146 151 159 156 163 169 167 168 180 149 167 170 166 167 166 161 165 158 157 163 145 124 120 120 134 146 147 151 133 114 110 102 97 102 47
117 106 261 282 153 141 89 184 236 59 76 91 96 116 142 149 156 161 164 164 169 168 170 180 176 172 163 175 166 161 162 158 160 155 137 139 119 99 105 150 157 163 125 116 118 114 71 7 67
146 172 226 199 134 154 180 181 175 119 41 112 134 140 155 152 164 163 171 180 181 203 175 192 195 164 180 189 186 170 164 166 166 169 152 146 130 133 91 145 157 149 109 124 113 83 108 119 104
92 16 340 58 53 159 80 123 93 105 177 178 153 151 157 166 170 177 179 187 182 168 174 181 181 182 196 177 182 170 167 172 169 170 154 144 135 125 152 132 136 137 57 47 63 47 42 107 68
146 132 221 247 184 131 135 131 129 147 111 146 156 163 166 177 178 181 184 185 186 179 174 181 176 175 188 195 179 171 169 178 173 183 173 146 162 171 198 244 151 62 330 2 17 63 50 100 109
198 186 139 98 233 174 163 155 140 200 192 208 206 172 174 179 181 179 181 192 194 201 192 178 184 180 192 191 184 174 172 173 181 178 158 171 158 186 196 184 185 167 238 299 211 145 45 145 146
300 141 115 242 297 178 177 161 171 185 199 254 182 191 181 176 177 180 182 195 209 196 188 189 193 191 191 187 193 196 196 192 189 183 187 181 225 195 196 174 195 172 227 287 335 56 202 183 319
273 51 31 289 265 258 164 217 181 182 200 218 180 202 179 173 185 175 182 193 203 191 197 203 206 210 199 189 187 183 173 174 189 187 200 198 204 191 169 182 223 186 198 237 3 17 245 261 284
5 171 213 253 214 230 188 201 167 183 200 235 207 204 171 180 186 174 177 186 185 187 179 180 199 206 203 204 198 188 176 182 181 202 196 202 191 187 177 204 195 151 276 331 11 11 132 337 351
200 205 249 193 219 227 212 221 156 184 188 210 231 206 185 179 172 176 183 186 179 182 179 182 199 206 202 207 205 196 186 198 200 198 201 200 193 189 188 184 180 129 330 17 63 57 146 97 65
269 215 219 15 189 191 211 227 169 184 202 230 204 217 206 201 188 182 181 178 176 172 181 188 190 201 206 201 204 191 191 193 192 183 184 193 205 198 192 141 136 121 284 8 71 42 51 151 2
302 303 344 294 221 173 206 243 177 177 156 193 288 205 212 209 189 185 183 177 176 180 192 200 197 207 213 211 203 196 193 193 192 188 197 186 196 198 195 174 162 173 172 81 44 36 45 13 321
288 279 219 245 282 252 334 291 148 162 167 181 204 235 205 211 196 185 185 184 188 192 206 205 203 206 210 203 198 192 191 195 195 198 203 193 204 206 205 207 197 187 192 169 140 132 196 250 187
273 292 307 290 232 246 189 278 211 153 192 195 204 211 212 202 208 200 191 192 197 202 207 205 200 194 194 185 183 186 188 190 194 194 211 215 223 227 229 221 217 209 209 207 167 161 236 247 248
246 254 298 310 311 356 286 292 252 97 207 211 198 210 216 200 197 194 197 193 199 202 204 204 197 188 182 177 186 189 194 199 205 203 206 219 209 219 242 227 224 225 230 225 229 229 222 246 253
287 324 290 319 322 316 268 270 183 206 208 221 215 219 210 194 199 200 197 197 199 204 205 201 197 191 189 184 187 199 198 201 207 213 211 210 216 223 242 234 234 231 227 232 226 231 242 247 241
293 296 320 321 321 230 40 312 213 210 206 202 204 221 208 198 192 199 197 197 196 199 202 201 197 192 194 191 191 200 206 200 208 219 219 211 224 220 241 241 262 240 242 247 235 234 235 246 259
236 183 174 238 264 216 227 239 256 199 208 200 201 213 204 186 191 193 190 197 200 200 203 201 199 196 196 196 197 203 203 200 204 208 210 220 229 230 232 234 246 244 242 239 247 250 253 249 248
252 263 226 241 290 323 251 285 0 98 175 194 182 180 182 187 182 189 194 199 197 202 203 202 202 200 202 202 202 207 205 202 204 206 211 214 222 220 236 246 254 246 231 229 242 256 258 250 243
166 223 346 319 253 270 288 291 208 103 84 65 124 157 167 186 188 189 191 190 195 203 204 204 204 208 204 207 205 209 212 208 209 209 204 208 213 230 240 246 255 254 247 250 245 245 252 253 247
232 232 243 180 170 212 321 293 210 202 215 169 77 183 174 175 179 191 190 190 191 197 198 200 202 206 204 212 207 207 210 212 211 213 212 216 221 230 239 244 254 256 239 251 260 253 243 244 256
233 223 182 160 273 221 182 265 223 87 210 162 150 129 170 173 181 186 194 193 190 192 193 199 203 207 210 213 213 211 212 212 211 214 219 227 232 232 242 240 242 244 255 269 262 254 248 245 248